CTN2PY EDDN-LDDU

Flight info

Callsign CTN2PY
Flight time N/A
Altitude 35000
Route DKB N869 TEDGO L607 ELMEM N606 GIRIS DCT NIVAS DCT PEVAL DCT PUL DCT SPL DCT SIPAL L607 NERRA
Aircraft A320/M-SDE3FGHIRWY/LB1

Departure

Time 2026-04-28 13:02
Airport Nuremberg Airport (EDDN)

Arrival

Time N/A
Airport Dubrovnik Ruđer Bošković Airport (LDDU)
Time Latitude Longitude Altitude Speed Heading
2026-04-28 12:17 49.49538 11.07585 1026 ft 0 kts 188°
2026-04-28 12:54 49.49543 11.07586 1026 ft 3 kts 188°
2026-04-28 12:54 49.49560 11.07590 1034 ft 3 kts 188°
2026-04-28 12:54 49.49577 11.07594 1026 ft 3 kts 188°
2026-04-28 12:54 49.49589 11.07596 1026 ft 3 kts 193°
2026-04-28 12:55 49.49606 11.07607 1026 ft 3 kts 230°
2026-04-28 12:55 49.49614 11.07631 1024 ft 2 kts 266°
2026-04-28 12:55 49.49614 11.07654 1026 ft 0 kts 294°
2026-04-28 12:55 49.49613 11.07657 1026 ft 3 kts 306°
2026-04-28 12:56 49.49584 11.07692 1026 ft 1 kts 304°
2026-04-28 12:56 49.49589 11.07679 1025 ft 0 kts 296°
2026-04-28 12:57 49.49597 11.07647 1024 ft 5 kts 285°
2026-04-28 12:57 49.49609 11.07539 1025 ft 14 kts 279°
2026-04-28 12:57 49.49621 11.07396 1024 ft 12 kts 279°
2026-04-28 12:57 49.49634 11.07274 1025 ft 11 kts 282°
2026-04-28 12:58 49.49696 11.07230 1023 ft 11 kts 356°
2026-04-28 12:58 49.49739 11.07158 1022 ft 10 kts 280°
2026-04-28 12:58 49.49750 11.07061 1021 ft 9 kts 280°
2026-04-28 12:58 49.49760 11.06972 1020 ft 8 kts 279°
2026-04-28 12:59 49.49769 11.06888 1020 ft 8 kts 277°
2026-04-28 12:59 49.49775 11.06812 1019 ft 6 kts 277°
2026-04-28 12:59 49.49780 11.06751 1019 ft 6 kts 277°
2026-04-28 12:59 49.49789 11.06654 1020 ft 9 kts 279°
2026-04-28 13:00 49.49800 11.06535 1020 ft 12 kts 278°
2026-04-28 13:00 49.49814 11.06404 1019 ft 13 kts 279°
2026-04-28 13:00 49.49829 11.06274 1018 ft 13 kts 281°
2026-04-28 13:00 49.49841 11.06152 1019 ft 10 kts 279°
2026-04-28 13:01 49.49852 11.06054 1021 ft 10 kts 282°
2026-04-28 13:01 49.49905 11.05964 1023 ft 15 kts 332°
2026-04-28 13:01 49.50013 11.05942 1028 ft 14 kts 12°
2026-04-28 13:01 49.50046 11.06047 1024 ft 14 kts 100°
2026-04-28 13:02 49.50004 11.06445 1022 ft 76 kts 98°
2026-04-28 13:02 49.49886 11.07640 1026 ft 145 kts 98°
2026-04-28 13:02 49.49746 11.09120 1675 ft 125 kts 95°
2026-04-28 13:02 49.49687 11.10340 1984 ft 123 kts 92°
2026-04-28 13:03 49.49703 11.11708 2165 ft 119 kts 73°
2026-04-28 13:03 49.49821 11.12202 2192 ft 122 kts 54°
2026-04-28 13:03 49.50390 11.12903 1875 ft 145 kts 40°